TimeCDT,TemperatureF,Dew PointF,Humidity,Sea Level PressureIn,VisibilityMPH,Wind Direction,Wind SpeedMPH,Gust SpeedMPH,PrecipitationIn,Events,Conditions,WindDirDegrees,DateUTC
12:06 AM,59.0,59.0,100,29.92,2.5,Calm,Calm,-,N/A,,Clear,0,2013-08-31 05:06:00
12:26 AM,60.8,59.0,94,29.92,7.0,Calm,Calm,-,N/A,,Clear,0,2013-08-31 05:26:00
12:46 AM,59.0,59.0,100,29.92,1.5,Calm,Calm,-,N/A,,Mist,0,2013-08-31 05:46:00
1:06 AM,59.0,59.0,100,29.91,0.8,Calm,Calm,-,N/A,,Mist,0,2013-08-31 06:06:00
1:26 AM,59.0,57.2,94,29.91,1.8,Calm,Calm,-,N/A,,Mist,0,2013-08-31 06:26:00
1:46 AM,59.0,59.0,100,29.91,5.0,Calm,Calm,-,N/A,,Scattered Clouds,0,2013-08-31 06:46:00
2:06 AM,59.0,59.0,100,29.91,5.0,Calm,Calm,-,N/A,,Clear,0,2013-08-31 07:06:00
2:26 AM,57.2,55.4,94,29.90,1.2,Calm,Calm,-,N/A,,Mist,0,2013-08-31 07:26:00
2:46 AM,57.2,55.4,94,29.90,1.2,Calm,Calm,-,N/A,,Mist,0,2013-08-31 07:46:00
3:06 AM,57.2,55.4,94,29.90,1.0,Calm,Calm,-,N/A,,Mist,0,2013-08-31 08:06:00
3:26 AM,55.4,55.4,100,29.90,0.5,Calm,Calm,-,N/A,Fog,Fog,0,2013-08-31 08:26:00
3:46 AM,55.4,55.4,100,29.90,0.5,Calm,Calm,-,N/A,Fog,Fog,0,2013-08-31 08:46:00
4:06 AM,53.6,53.6,100,29.89,0.5,Calm,Calm,-,N/A,Fog,Fog,0,2013-08-31 09:06:00
4:26 AM,53.6,53.6,100,29.89,0.2,Calm,Calm,-,N/A,Fog,Fog,0,2013-08-31 09:26:00
4:46 AM,53.6,53.6,100,29.87,0.5,Calm,Calm,-,N/A,Fog,Fog,0,2013-08-31 09:46:00
5:06 AM,53.6,53.6,100,29.87,0.8,Calm,Calm,-,N/A,,Mostly Cloudy,0,2013-08-31 10:06:00
5:26 AM,53.6,53.6,100,29.86,0.5,Calm,Calm,-,N/A,Fog,Fog,0,2013-08-31 10:26:00
5:46 AM,53.6,51.8,94,29.86,0.5,Calm,Calm,-,N/A,Fog,Fog,0,2013-08-31 10:46:00
6:06 AM,53.6,51.8,94,29.86,0.5,Calm,Calm,-,N/A,Fog,Fog,0,2013-08-31 11:06:00
6:26 AM,53.6,53.6,100,29.87,1.8,Calm,Calm,-,N/A,,Mist,0,2013-08-31 11:26:00
6:46 AM,55.4,53.6,94,29.86,0.2,Calm,Calm,-,N/A,Fog,Fog,0,2013-08-31 11:46:00
7:06 AM,55.4,53.6,94,29.87,0.8,Calm,Calm,-,N/A,,Mist,0,2013-08-31 12:06:00
7:26 AM,55.4,53.6,94,29.87,0.8,Calm,Calm,-,N/A,,Mist,0,2013-08-31 12:26:00
7:46 AM,59.0,57.2,94,29.87,5.0,Calm,Calm,-,N/A,,Clear,0,2013-08-31 12:46:00
8:06 AM,59.0,59.0,100,29.86,7.0,Calm,Calm,-,N/A,,Clear,0,2013-08-31 13:06:00
8:26 AM,60.8,59.0,94,29.86,10.0,Calm,Calm,-,N/A,,Clear,0,2013-08-31 13:26:00
8:46 AM,62.6,60.8,94,29.86,10.0,South,3.5,-,N/A,,Clear,190,2013-08-31 13:46:00
9:06 AM,62.6,62.6,100,29.86,10.0,SSW,8.1,-,N/A,,Clear,210,2013-08-31 14:06:00
9:26 AM,62.6,62.6,100,29.86,10.0,SSW,9.2,-,N/A,,Clear,210,2013-08-31 14:26:00
9:46 AM,68.0,62.6,83,29.86,10.0,SSW,8.1,-,N/A,,Clear,200,2013-08-31 14:46:00
10:06 AM,69.8,62.6,78,29.85,10.0,SW,6.9,-,N/A,,Clear,220,2013-08-31 15:06:00
10:26 AM,71.6,62.6,73,29.84,10.0,SSW,5.8,-,N/A,,Clear,200,2013-08-31 15:26:00
10:46 AM,71.6,62.6,73,29.85,10.0,SW,3.5,-,N/A,,Clear,220,2013-08-31 15:46:00
11:06 AM,73.4,62.6,69,29.85,10.0,SSW,4.6,-,N/A,,Clear,210,2013-08-31 16:06:00
11:26 AM,75.2,62.6,65,29.85,10.0,WSW,6.9,-,N/A,,Clear,240,2013-08-31 16:26:00
11:46 AM,77.0,62.6,61,29.84,10.0,SW,3.5,-,N/A,,Clear,230,2013-08-31 16:46:00
12:06 PM,78.8,62.6,57,29.82,10.0,SSW,4.6,-,N/A,,Clear,200,2013-08-31 17:06:00
12:26 PM,78.8,62.6,57,29.82,10.0,WSW,4.6,-,N/A,,Clear,250,2013-08-31 17:26:00
12:46 PM,78.8,62.6,57,29.81,10.0,SW,5.8,-,N/A,,Clear,230,2013-08-31 17:46:00
1:06 PM,80.6,62.6,54,29.81,10.0,SW,8.1,-,N/A,,Clear,220,2013-08-31 18:06:00
1:26 PM,80.6,64.4,58,29.81,10.0,SW,8.1,-,N/A,,Clear,220,2013-08-31 18:26:00
1:46 PM,80.6,62.6,54,29.80,10.0,SW,6.9,-,N/A,,Clear,230,2013-08-31 18:46:00
2:06 PM,82.4,62.6,51,29.79,10.0,South,4.6,-,N/A,,Clear,180,2013-08-31 19:06:00
2:26 PM,82.4,62.6,51,29.79,10.0,SSW,4.6,-,N/A,,Clear,200,2013-08-31 19:26:00
2:46 PM,82.4,62.6,51,29.79,10.0,SW,6.9,-,N/A,,Clear,220,2013-08-31 19:46:00
3:06 PM,82.4,62.6,51,29.77,10.0,SSW,9.2,-,N/A,,Clear,210,2013-08-31 20:06:00
3:26 PM,84.2,60.8,45,29.76,10.0,SW,5.8,-,N/A,,Clear,220,2013-08-31 20:26:00
3:46 PM,84.2,60.8,45,29.76,10.0,South,6.9,-,N/A,,Clear,180,2013-08-31 20:46:00
4:06 PM,84.2,60.8,45,29.76,10.0,SSW,10.4,-,N/A,,Clear,210,2013-08-31 21:06:00
4:26 PM,84.2,60.8,45,29.75,10.0,SW,10.4,-,N/A,,Clear,220,2013-08-31 21:26:00
4:46 PM,84.2,62.6,48,29.74,10.0,SSW,8.1,-,N/A,,Clear,210,2013-08-31 21:46:00
5:06 PM,84.2,62.6,48,29.73,10.0,SW,6.9,-,N/A,,Clear,230,2013-08-31 22:06:00
5:26 PM,80.6,62.6,54,29.73,10.0,SSW,5.8,-,N/A,,Clear,200,2013-08-31 22:26:00
5:46 PM,78.8,64.4,61,29.75,10.0,SSW,4.6,-,N/A,,Clear,210,2013-08-31 22:46:00
6:06 PM,78.8,64.4,61,29.77,10.0,Calm,Calm,-,N/A,,Clear,0,2013-08-31 23:06:00
6:26 PM,77.0,68.0,74,29.76,10.0,Calm,Calm,-,N/A,,Clear,0,2013-08-31 23:26:00
6:46 PM,73.4,68.0,83,29.79,10.0,Calm,Calm,-,N/A,,Scattered Clouds,0,2013-08-31 23:46:00
7:06 PM,71.6,60.8,69,29.80,10.0,North,17.3,25.3,N/A,Rain,Light Rain,360,2013-09-01 00:06:00
7:26 PM,68.0,60.8,78,29.84,7.0,NW,11.5,-,0.01,Rain,Heavy Rain,320,2013-09-01 00:26:00
7:46 PM,64.4,60.8,88,29.77,7.0,East,4.6,-,0.02,Rain-Thunderstorm,Light Thunderstorms and Rain,90,2013-09-01 00:46:00
8:06 PM,64.4,62.6,94,29.74,7.0,South,12.7,18.4,N/A,Rain-Thunderstorm,Light Thunderstorms and Rain,190,2013-09-01 01:06:00
8:26 PM,64.4,62.6,94,29.72,10.0,SSE,5.8,-,N/A,,Scattered Clouds,150,2013-09-01 01:26:00
8:46 PM,64.4,62.6,94,29.71,10.0,Calm,Calm,-,N/A,,Clear,0,2013-09-01 01:46:00
9:06 PM,64.4,62.6,94,29.71,10.0,Calm,Calm,-,N/A,,Clear,0,2013-09-01 02:06:00
9:26 PM,62.6,60.8,94,29.72,10.0,Calm,Calm,-,N/A,,Clear,0,2013-09-01 02:26:00
9:46 PM,62.6,62.6,100,29.74,10.0,Calm,Calm,-,N/A,,Clear,0,2013-09-01 02:46:00
10:06 PM,62.6,60.8,94,29.74,10.0,Calm,Calm,-,N/A,,Clear,0,2013-09-01 03:06:00
10:26 PM,62.6,60.8,94,29.74,10.0,Calm,Calm,-,N/A,,Clear,0,2013-09-01 03:26:00
10:46 PM,62.6,60.8,94,29.73,10.0,Calm,Calm,-,N/A,,Clear,0,2013-09-01 03:46:00
11:06 PM,62.6,60.8,94,29.72,10.0,Calm,Calm,-,N/A,,Clear,0,2013-09-01 04:06:00
11:26 PM,60.8,59.0,94,29.72,10.0,Calm,Calm,-,N/A,,Scattered Clouds,0,2013-09-01 04:26:00
11:46 PM,60.8,59.0,94,29.72,5.0,Calm,Calm,-,N/A,,Scattered Clouds,0,2013-09-01 04:46:00